DateTimeUTC,F1_A11,F1_S11,BsB_S11,BsG_S11,BsR_S11,BbsB_S11,BbsG_S11,BbsR_S11,BaB_A11,BaG_A11,BaR_A11,Tu_S11,T_S11,Uu_S11,U_S11,P_S11,T1_A11
2021-03-31T22:00:00Z,00000200,21000000,,,,,,,-000.33,-000.23,-000.63,16.5,23.9,,00.0,0656.4,30.9
2021-03-31T22:01:00Z,00000200,21000000,,,,,,,-000.03,-000.16,0000.15,16.5,24.0,,00.0,0656.4,30.9
2021-03-31T22:02:00Z,00000200,21000000,,,,,,,-000.22,0000.02,-000.27,16.5,24.0,,00.0,0656.3,30.9
2021-03-31T22:03:00Z,00000200,61000000,,,,,,,0000.14,-000.07,-000.20,16.5,24.0,,00.0,0656.3,30.9
2021-03-31T22:04:00Z,00000200,41000000,0003.16,0002.24,0001.45,0000.28,0000.50,0000.05,0000.28,0000.42,0000.61,16.6,23.8,,00.0,0657.1,30.9
2021-03-31T22:05:00Z,00000200,01000000,0003.24,0001.89,0001.52,0000.31,0000.18,0000.31,0000.54,0000.49,0000.34,16.6,23.7,,00.0,0657.1,30.9
2021-03-31T22:06:00Z,00000200,01000000,0002.42,0001.76,0001.25,0000.54,0000.44,0000.24,0000.31,0000.12,-000.06,16.6,23.7,,00.0,0657.1,30.9
2021-03-31T22:07:00Z,00000200,01000000,0003.19,0001.87,0001.29,0000.52,0000.25,0000.22,0000.04,0000.26,0000.58,16.5,23.7,,00.0,0657.1,30.9
2021-03-31T22:08:00Z,00000200,01000000,0003.36,0001.97,0001.15,0000.55,0000.44,0000.36,0000.88,0000.64,0000.16,16.5,23.6,,00.0,0657.0,30.9
2021-03-31T22:09:00Z,00000200,01000000,0002.58,0001.98,0001.63,-000.19,0000.43,0000.34,0001.04,0000.77,0000.93,16.5,23.6,,00.0,0656.9,30.9
2021-03-31T22:10:00Z,00000200,01000000,0003.38,0001.65,0001.22,0000.62,0000.52,0000.13,0000.94,0001.11,0001.06,16.5,23.6,,00.0,0656.9,30.9
2021-03-31T22:11:00Z,00000200,01000000,0002.48,0001.90,0001.11,0000.34,0000.43,0000.15,0001.41,0001.01,0000.68,16.5,23.6,,00.0,0656.8,30.9
2021-03-31T22:12:00Z,00000200,01000000,0003.06,0001.62,0001.09,0000.81,0000.61,0000.33,0000.60,0001.03,0000.57,16.6,23.6,,00.0,0656.8,30.9
2021-03-31T22:13:00Z,00000200,01000000,0002.66,0001.81,0001.31,0000.11,0000.15,0000.05,0000.44,0000.27,0000.27,16.6,23.6,,00.0,0656.8,30.9
2021-03-31T22:14:00Z,00000200,01000000,0003.34,0001.64,0001.42,0000.36,0000.54,0000.45,0000.34,0000.20,0000.30,16.7,23.7,,00.0,0656.7,30.9
2021-03-31T22:15:00Z,00000200,01000000,0003.41,0001.75,0001.43,0000.34,0000.19,0000.20,0000.44,0000.33,0000.26,16.7,23.7,,00.0,0656.7,30.9
2021-03-31T22:16:00Z,00000200,01000000,0002.57,0001.53,0001.17,0000.12,0000.03,0000.35,0000.59,0000.41,0000.31,16.7,23.7,,00.0,0656.7,30.9
2021-03-31T22:17:00Z,00000200,01000000,0003.07,0001.61,0000.82,0000.64,0000.04,0000.25,0000.19,-000.25,0000.03,16.7,23.7,,00.0,0656.7,30.9
2021-03-31T22:18:00Z,00000200,01000000,0002.58,0001.77,0001.11,0000.48,0000.42,0000.21,-000.07,0000.83,0000.38,16.6,23.6,,00.0,0656.6,30.9
2021-03-31T22:19:00Z,00000200,01000000,0002.53,0001.71,0001.31,0000.42,0000.26,0000.47,0000.48,0000.17,-000.07,16.6,23.6,,00.0,0656.6,30.9
2021-03-31T22:20:00Z,00000200,01000000,0003.07,0001.82,0001.05,0000.40,0000.31,0000.38,0000.55,0000.37,0000.12,16.6,23.6,,00.0,0656.5,30.9
2021-03-31T22:21:00Z,00000200,01000000,0003.19,0001.86,0001.10,0000.83,0000.23,0000.14,0000.98,0000.98,0000.92,16.5,23.6,,00.0,0656.5,30.9
2021-03-31T22:22:00Z,00000200,01000000,0002.27,0001.74,0001.37,0000.36,-000.04,0000.30,0000.49,0000.52,0000.64,16.5,23.6,,00.0,0656.5,30.9
2021-03-31T22:23:00Z,00000200,01000000,0003.29,0002.13,0001.36,0000.48,0000.02,0000.34,0001.01,0000.61,0000.27,16.5,23.5,,00.0,0656.5,30.9
2021-03-31T22:24:00Z,00000200,01000000,0003.18,0001.79,0000.87,0000.67,0000.22,0000.10,0000.27,0000.48,0000.65,16.5,23.5,,00.0,0656.5,30.9
2021-03-31T22:25:00Z,00000200,01000000,0002.83,0001.96,0001.16,0000.09,0000.25,-000.07,0000.36,0000.13,0000.17,16.4,23.5,,00.0,0656.5,30.9
2021-03-31T22:26:00Z,00000200,01000000,0003.05,0001.68,0001.25,0000.52,0000.32,0000.25,0000.84,0000.62,0000.37,16.5,23.5,,00.0,0656.5,30.9
2021-03-31T22:27:00Z,00000200,01000000,0002.89,0001.95,0001.06,0000.13,0000.41,0000.36,0000.67,0000.75,0000.74,16.5,23.5,,00.0,0656.6,30.9
2021-03-31T22:28:00Z,00000200,01000000,0003.02,0001.73,0001.07,0000.50,0000.33,-000.04,0000.57,0000.93,0000.54,16.6,23.6,,00.0,0656.6,30.9
2021-03-31T22:29:00Z,00000200,01000000,0002.79,0001.74,0001.28,0000.38,0000.23,0000.47,0000.73,0000.60,0000.23,16.7,23.6,,00.0,0656.7,30.9
2021-03-31T22:30:00Z,00000200,01000000,0002.88,0001.70,0000.95,0000.62,0000.54,0000.09,0000.70,0000.53,0000.78,16.7,23.7,,00.0,0656.7,30.9
2021-03-31T22:31:00Z,00000200,01000000,0002.90,0001.60,0001.04,0000.50,0000.28,0000.01,0000.20,0000.37,0000.12,16.8,23.7,,00.0,0656.7,30.9
2021-03-31T22:32:00Z,00000200,01000000,0003.69,0002.08,0001.12,0000.89,0000.22,0000.33,0000.31,0000.83,0000.36,16.8,23.7,,00.0,0656.7,31.0
2021-03-31T22:33:00Z,00000200,01000000,0003.08,0001.89,0001.30,0000.27,0000.17,0000.16,0000.94,0000.33,0000.28,16.7,23.7,,00.0,0656.7,30.9
2021-03-31T22:34:00Z,00000200,01000000,0003.33,0001.68,0001.03,0000.23,0000.23,0000.21,0000.35,0000.09,0000.19,16.7,23.7,,00.0,0656.7,30.9
2021-03-31T22:35:00Z,00000200,01000000,0002.95,0002.03,0001.16,0000.00,0000.32,0000.28,0000.40,0000.51,0000.42,16.6,23.6,,00.0,0656.7,30.9
2021-03-31T22:36:00Z,00000200,01000000,0003.82,0001.68,0001.29,0000.59,0000.19,0000.25,0001.07,0000.54,0000.28,16.6,23.6,,00.0,0656.7,30.9
2021-03-31T22:37:00Z,00000200,01000000,0003.43,0001.87,0001.26,0000.58,0000.23,0000.12,0000.59,0000.91,0000.68,16.6,23.6,,00.0,0656.8,30.9
2021-03-31T22:38:00Z,00000200,01000000,0003.02,0001.82,0001.09,0000.51,0000.29,0000.08,0000.65,0000.57,0000.55,16.5,23.6,,00.0,0656.7,30.9
2021-03-31T22:39:00Z,00000200,01000000,0002.85,0001.73,0001.29,0000.69,0000.37,0000.41,0000.56,0000.46,0000.64,16.5,23.5,,00.0,0656.7,30.9
2021-03-31T22:40:00Z,00000200,01000000,0003.30,0001.82,0001.35,0000.50,0000.13,0000.25,0001.03,0000.79,0000.68,16.5,23.5,,00.0,0656.7,30.9
2021-03-31T22:41:00Z,00000200,01000000,0003.48,0001.79,0001.25,0000.54,0000.14,0000.24,0000.96,0000.89,0000.62,16.6,23.6,,00.0,0656.6,30.9
2021-03-31T22:42:00Z,00000200,01000000,0002.45,0002.06,0001.20,0000.32,0000.22,0000.43,0000.38,0000.85,0000.71,16.6,23.6,,00.0,0656.6,30.9
2021-03-31T22:43:00Z,00000200,01000000,0003.39,0001.80,0000.94,0000.08,0000.21,0000.43,0000.85,0000.26,0000.19,16.7,23.6,,00.0,0656.6,30.9
2021-03-31T22:44:00Z,00000200,01000000,0003.08,0001.83,0001.44,-000.04,0000.37,0000.44,0000.63,0000.87,0000.65,16.8,23.7,,00.0,0656.6,30.9
2021-03-31T22:45:00Z,00000200,01000000,0002.94,0001.83,0001.20,0000.73,0000.44,0000.39,0000.43,0000.30,0000.47,16.8,23.7,,00.0,0656.6,30.9
2021-03-31T22:46:00Z,00000200,01000000,0002.76,0001.88,0001.42,0000.10,0000.28,0000.33,0000.46,0000.63,0000.18,16.8,23.7,,00.0,0656.5,30.9
2021-03-31T22:47:00Z,00000200,01000000,0003.24,0001.79,0001.42,0000.30,0000.28,0000.28,0000.67,0000.49,0000.45,16.8,23.7,,00.0,0656.5,30.9
2021-03-31T22:48:00Z,00000200,01000000,0002.71,0001.82,0001.08,0000.18,0000.02,0000.30,0000.50,0000.33,0000.62,16.7,23.7,,00.0,0656.5,30.9
2021-03-31T22:49:00Z,00000200,01000000,0003.05,0001.63,0001.37,0000.02,0000.35,-000.01,0000.60,0000.56,0000.06,16.7,23.7,,00.0,0656.5,30.9
2021-03-31T22:50:00Z,00000200,01000000,0003.14,0001.77,0001.24,0000.14,0000.18,0000.13,0000.31,0000.63,0000.45,16.6,23.6,,00.0,0656.5,30.9
2021-03-31T22:51:00Z,00000200,01000000,0003.12,0001.79,0001.29,0000.28,0000.27,0000.15,0001.17,0000.43,0000.20,16.6,23.6,,00.0,0656.4,30.9
2021-03-31T22:52:00Z,00000200,01000000,0002.76,0001.79,0000.96,0000.39,0000.12,0000.30,0000.54,0001.06,0001.16,16.6,23.6,,00.0,0656.4,30.9
2021-03-31T22:53:00Z,00000200,01000000,0002.95,0001.62,0001.13,0000.40,0000.24,0000.19,0001.12,0000.46,0000.32,16.5,23.6,,00.0,0656.4,30.9
2021-03-31T22:54:00Z,00000200,01000000,0002.81,0001.75,0001.15,0001.06,0000.18,0000.20,0000.63,0000.87,0000.59,16.5,23.6,,00.0,0656.3,30.9
2021-03-31T22:55:00Z,00000200,01000000,0002.80,0001.69,0001.20,0000.56,0000.14,0000.09,0000.78,0000.41,0000.44,16.5,23.5,,00.0,0656.3,30.9
2021-03-31T22:56:00Z,00000200,01000000,0003.18,0001.79,0001.28,0000.40,0000.46,0000.40,0000.39,0000.71,0000.43,16.5,23.5,,00.0,0656.3,30.9
2021-03-31T22:57:00Z,00000200,41000000,,,,,,,0001.23,0001.30,0001.32,16.6,23.6,,00.0,0656.5,30.9
2021-03-31T22:58:00Z,00000200,61000000,,,,,,,-000.65,-000.66,-000.77,16.4,23.8,,00.0,0655.5,30.9
2021-03-31T22:59:00Z,00000200,21000000,,,,,,,-000.58,-000.65,-000.75,16.4,23.9,,00.0,0655.4,30.9
